Overview Statistics Trail Chart Weather Telemetry Raw packets
 

This is the latest recevied weather packets stored in our database for station/object 9W2CHF-2. If no packets are shown the sender has not sent any weather packets the latest 10 day(s).

<< 15 16 17 18 19 20 21 >>
Time Temp. Humidity Pressure Rain* Wind** Luminosity Snow
1788254157 32.22° C 48% 1010.9 hPa - - - -
1788253257 32.78° C 47% 1011 hPa - - - -
1788252356 32.78° C 49% 1010.9 hPa - - - -
1788251456 32.78° C 49% 1010.6 hPa - - - -
1788250556 32.22° C 48% 1010.6 hPa - - - -
1788249656 32.78° C 49% 1010.6 hPa - - - -
1788248756 33.33° C 49% 1010.7 hPa - - - -
1788247855 32.22° C 52% 1010.9 hPa - - - -
1788246954 32.22° C 52% 1010.8 hPa - - - -
1788246053 32.22° C 54% 1011 hPa - - - -
1788245153 33.33° C 50% 1011 hPa - - - -
1788244253 33.33° C 55% 1011.1 hPa - - - -
1788243352 32.22° C 59% 1011.4 hPa - - - -
1788242452 32.22° C 60% 1011.7 hPa - - - -
1788241552 32.22° C 61% 1012 hPa - - - -
1788240663 32.78° C 62% 1012.2 hPa - - - -
1788239763 32.78° C 65% 1012.4 hPa - - - -
1788238863 32.22° C 71% 1012.5 hPa - - - -
1788237963 32.78° C 71% 1012.6 hPa - - - -
1788237063 32.78° C 69% 1012.8 hPa - - - -
1788236163 32.78° C 65% 1012.9 hPa - - - -
1788235262 32.22° C 68% 1013.2 hPa - - - -
1788234362 31.67° C 67% 1013.4 hPa - - - -
1788233462 32.22° C 70% 1013.5 hPa - - - -
1788232562 32.78° C 67% 1013.8 hPa - - - -

* Rain since midnight (hover to see other rain measurements)
** Current wind speed in m/s (hover to see current wind gust speed)